map of CZL home
Great Circle Mapper logo
CZL - Airport
Location
City:  Constantine, Algeria
Name:Mohamed Boudiaf International Airport
ICAO / IATA:DABC / CZL

Details
Type:Airport (Aerodrome, Airfield)
Use:International (customs port of entry)
Latitude:3617'07"N (36.285278)
Longitude:637'09"E (6.619167)
Elevation:2316 ft (706 m)
Variation:1.4E (WMM2015 magnetic declination)
Runways:2
Longest:9843 × 148 ft (3000 × 45 m)

Time
Time Zone:UTC+1
Local Time:

Weather
METAR:DABC 212030Z 00000KT 8000 FEW030 06/04 Q1032
TAF:DABC 211700Z 2118/2218 26006KT 9999 SCT020 SCT030
TEMPO 2118/2124 FEW020TCU BKN026
TEMPO 2200/2209 VRB02KT 2000 BR SCT005 SCT013 PROB40
TEMPO 2204/2208 0400 FG BKN003

Related Locations
Nearby:
Farthest:GIS: 11939 mi / 19214 km
Gisborne, NZ

Find:

   beyond  
but within

Other Information
Maps:
NOTAMs:
Links:
Sources:

  
flag of Algeria   

Sectional Chart

Flight Planning
at skyvector.com

Satellite Image

Google Maps Satellite View

 

Copyright © 2004-2014 Karl L. Swartz. All rights reserved.
The Great Circle Mapper name and logo are trademarks of the Great Circle Mapper.
All other trademarks mentioned herein belong to their respective owners.
Please see credits for attibutions and further copyright information.

  Follow gcmap on Facebook Follow gcmap on Twitter

hCard Microformat

Geo Microformat